Regional Weather Roundup
Issued by NWS

Home | Current Version | Previous Version | Graphics & Text | Print | Product List | Glossary Off
Versions: 1 2 3 4 5 6 7 8 9 10 11 12 13 14 15 16 17 18 19 20 21 22 23 24 25 26 27 28 29 30 31 32 33 34 35 36 37 38 39 40 41 42 43 44 45 46 47 48 49 50

000
ASUS43 KLSX 150859
RWRMO

WEATHER SUMMARY FOR MISSOURI
NATIONAL WEATHER SERVICE SPRINGFIELD MO
400 AM CDT TUE APR 15 2014

NOTE: "FAIR" INDICATES FEW OR NO CLOUDS BELOW 12,000 FEET WITH NO
       SIGNIFICANT WEATHER AND/OR OBSTRUCTIONS TO VISIBILITY.
       CURRENT SKY AND/OR WEATHER CONDITIONS ARE NOT AVAILABLE FOR
       CHILLICOTHE AND FARMINGTON.

MOZ001>031-035>038-043-044-053-054-151000-
...NORTHERN AND WESTERN MISSOURI...

CITY           SKY/WX    TMP DP  RH WIND       PRES   REMARKS
KANSAS CTY INT PTCLDY    33  21  61 W5        30.18S WCI  29
KANSAS C DTWN  PTCLDY    33  24  69 SW3       30.19R
LEE`S SUMMIT   CLEAR     32  23  69 SW3       30.18S
ST JOSEPH      CLEAR     29  24  82 SW3       30.19S
CHILLICOTHE      N/A     26  21  81 CALM      30.19S
KIRKSVILLE     CLEAR     22  18  85 W5        30.16R WCI  16

$$
MOZ066>068-077>081-088>096-101>105-151000-
...SOUTHWEST MISSOURI...

CITY           SKY/WX    TMP DP  RH WIND       PRES   REMARKS
SPRINGFIELD    PTCLDY    29  21  72 CALM      30.16R
JOPLIN         PTCLDY    28  22  78 CALM      30.20R

$$
MOZ032>034-039>042-045>050-055>058-069>072-151000-
...CENTRAL MISSOURI...

CITY           SKY/WX    TMP DP  RH WIND       PRES   REMARKS
COLUMBIA       CLEAR     28  22  78 NW6       30.16R WCI  22
JEFFERSON CITY CLEAR     31  25  78 NW3       30.18R
ROLLA          CLEAR     27  22  81 NW7       30.12R WCI  19
SEDALIA        CLEAR     33  23  66 NW3       30.18S
OSAGE BEACH    MOCLDY    30  19  64 CALM      30.18S

$$
MOZ051-052-059>065-151000-
...EAST CENTRAL MISSOURI...

CITY           SKY/WX    TMP DP  RH WIND       PRES   REMARKS
ST LOUIS INTL  CLEAR     32  23  69 NW7       30.12R WCI  26
SPIRIT OF STL  CLEAR     31  22  69 NW9       30.13R WCI  23
ST CHARLES     CLEAR     33  22  63 NW12      30.12R WCI  24

$$
MOZ072>076-082>087-097>100-106>115-151000-
...SOUTH CENTRAL AND SOUTHEAST MISSOURI...

CITY           SKY/WX    TMP DP  RH WIND       PRES   REMARKS
CAPE GIRARDEAU CLEAR     34  25  69 NW9       30.10R WCI  27
FARMINGTON     CLEAR     30  21  69 NW9       30.11S WCI  22
POPLAR BLUFF   CLEAR     35  23  61 MISG      30.11S
WEST PLAINS    CLEAR     30  21  69 NW6       30.14R WCI  24

$$



USA.gov is the U.S. government's official web portal to all federal, state and local government web resources and services.